Regional Weather Roundup
Issued by NWS

Home | Current Version | Previous Version | Graphics & Text | Print | Product List | Glossary On
Versions: 1 2 3 4 5 6 7 8 9 10 11 12 13 14 15 16 17 18 19 20 21 22 23 24 25 26 27 28 29 30 31 32 33 34 35 36 37 38 39 40 41 42 43 44 45 46 47 48 49 50
184
ASUS45 KBOI 250910
RWRID

IDAHO REGIONAL WEATHER ROUNDUP
NATIONAL WEATHER SERVICE BOISE ID
300 AM MDT THU MAY 25 2017

NOTE: "FAIR" INDICATES FEW OR NO CLOUDS BELOW 12000 FEET
WITH NO SIGNIFICANT WEATHER AND/OR OBSTRUCTIONS TO VISIBILITY

IDZ012-014-251000-
SOUTHWEST IDAHO


CITY           SKY/WX    TMP DP  RH WIND       PRES   REMARKS
BOISE          CLEAR     48  30  49 W10       29.72S
CALDWELL       CLEAR     49  32  52 W14       29.74F
MOUNTAIN HOME  CLEAR     47  29  51 NW12      29.72R
$$

IDZ016-017-251000-
SOUTHCENTRAL IDAHO


CITY           SKY/WX    TMP DP  RH WIND       PRES   REMARKS
BURLEY         PTCLDY    49  27  42 W18       29.67R
JEROME         CLEAR     46  28  49 SW17G24   29.71R
TWIN FALLS     PTCLDY    46  28  49 SW18G29   29.71R
$$

IDZ019>023-251000-
SOUTHEAST IDAHO


CITY           SKY/WX    TMP DP  RH WIND       PRES   REMARKS
IDAHO FALLS    PTCLDY    43  24  47 NW3       29.68R
POCATELLO      CLOUDY    49  29  46 NW7       29.68R
REXBURG        CLOUDY    41  25  53 CALM      29.65R
$$

IDZ006-010-011-018-031-032-251000-
CENTRAL IDAHO MOUNTAINS


CITY           SKY/WX    TMP DP  RH WIND       PRES   REMARKS
MCCALL         CLEAR     39  27  62 NE5       29.75S
HAILEY         CLEAR     39  21  48 NW6       29.70R WCI  35
STANLEY          N/A     29  21  72 CALM      29.76R
SALMON         CLEAR     39  21  48 CALM      29.73S
CHALLIS        CLEAR     39  25  57 NW8       29.74R WCI  33
$$

IDZ002-004-006-007-026-251000-
NORTHERN IDAHO


CITY           SKY/WX    TMP DP  RH WIND       PRES   REMARKS
LEWISTON       PTCLDY    53  36  52 SW10      29.75R
LOWELL           N/A     48  40  73 CALM      29.76F
COEUR D`ALENE  CLOUDY    47  39  74 CALM      29.76R
MULLAN PASS    CLOUDY    33  28  81 VRB3      29.74S
$$




USA.gov is the U.S. government's official web portal to all federal, state and local government web resources and services.